| time (UTC) | temp C | wind direction | speed KPH | gust KPH | rain 1hr cm | rain 24hr cm | rain mn cm | humidity % | barometer mb |
| 20260505091517 | 6 | 160 | 9.7 | 16.1 | 0.00 | 0.66 | 0.00 | 86 | 1008.8 |
| 20260505090013 | 6 | 195 | 8.0 | 12.9 | 0.00 | 0.66 | 0.00 | 86 | 1008.7 |
| 20260505084511 | 6 | 185 | 4.8 | 14.5 | 0.00 | 0.66 | 0.00 | 85 | 1008.5 |
| 20260505083008 | 6 | 199 | 4.8 | 16.1 | 0.00 | 0.66 | 0.00 | 84 | 1008.4 |
| 20260505081512 | 6 | 180 | 4.8 | 19.3 | 0.00 | 0.66 | 0.00 | 84 | 1008.1 |
| 20260505080007 | 6 | 202 | 6.4 | 12.9 | 0.00 | 0.71 | 0.00 | 84 | 1007.9 |
| 20260505074504 | 6 | 222 | 3.2 | 17.7 | 0.00 | 0.71 | 0.00 | 83 | 1007.9 |
| 20260505073102 | 7 | 180 | 4.8 | 12.9 | 0.00 | 0.71 | 0.00 | 82 | 1007.7 |
| 20260505071556 | 7 | 206 | 1.6 | 14.5 | 0.00 | 0.71 | 0.00 | 82 | 1007.5 |
| 20260505070057 | 7 | 235 | 6.4 | 17.7 | 0.00 | 0.79 | 0.00 | 82 | 1007.3 |
| 20260505064553 | 7 | 206 | 8.0 | 20.9 | 0.00 | 0.79 | 0.00 | 82 | 1007.0 |
| 20260505063051 | 7 | 207 | 6.4 | 14.5 | 0.00 | 0.79 | 0.00 | 81 | 1006.8 |
| 20260505061548 | 7 | 217 | 6.4 | 16.1 | 0.00 | 0.79 | 0.00 | 81 | 1006.5 |
| 20260505060044 | 7 | 239 | 4.8 | 24.1 | 0.00 | 0.81 | 0.00 | 80 | 1006.2 |
| 20260505054605 | 8 | 273 | 6.4 | 20.9 | 0.00 | 0.81 | 0.00 | 80 | 1005.8 |
| 20260505053045 | 8 | 257 | 9.7 | 29.0 | 0.00 | 0.81 | 0.00 | 80 | 1005.5 |
| 20260505051541 | 8 | 245 | 11.3 | 22.5 | 0.00 | 0.81 | 0.00 | 80 | 1005.2 |
| 20260505041543 | 8 | 267 | 11.3 | 24.1 | 0.00 | 0.86 | 0.00 | 80 | 1004.6 |
| 20260505040025 | 8 | 279 | 12.9 | 25.7 | 0.00 | 0.89 | 0.00 | 81 | 1004.4 |
| 20260505034523 | 8 | 251 | 12.9 | 29.0 | 0.00 | 0.89 | 0.00 | 81 | 1004.3 |
| 20260505033024 | 8 | 202 | 12.9 | 24.1 | 0.00 | 0.89 | 0.00 | 80 | 1004.1 |
| 20260505031527 | 8 | 242 | 11.3 | 27.4 | 0.00 | 0.89 | 0.00 | 80 | 1004.0 |
| 20260505030014 | 8 | 216 | 11.3 | 29.0 | 0.00 | 0.89 | 0.89 | 79 | 1003.6 |
| 20260505024512 | 8 | 235 | 8.0 | 22.5 | 0.00 | 0.89 | 0.89 | 79 | 1003.5 |
| 20260505023014 | 8 | 274 | 12.9 | 29.0 | 0.00 | 0.89 | 0.89 | 77 | 1003.3 |
| 20260505021510 | 9 | 230 | 17.7 | 33.8 | 0.00 | 0.89 | 0.89 | 74 | 1003.1 |
| 20260505020008 | 10 | 236 | 17.7 | 51.5 | 0.00 | 1.30 | 0.89 | 71 | 1002.7 |
| 20260505014510 | 10 | 264 | 16.1 | 27.4 | 0.00 | 1.30 | 0.89 | 69 | 1002.9 |
| 20260505013006 | 9 | 221 | 9.7 | 19.3 | 0.00 | 1.30 | 0.89 | 69 | 1002.6 |
| 20260505011504 | 10 | 180 | 8.0 | 32.2 | 0.00 | 1.30 | 0.89 | 66 | 1002.6 |
| 20260505010009 | 10 | 239 | 14.5 | 37.0 | 0.00 | 1.70 | 0.89 | 64 | 1002.4 |
| 20260505004502 | 9 | 217 | 24.1 | 41.8 | 0.00 | 1.70 | 0.89 | 66 | 1002.2 |
| 20260505003119 | 8 | 180 | 4.8 | 14.5 | 0.00 | 1.70 | 0.89 | 65 | 1002.0 |
| 20260505001559 | 8 | 266 | 4.8 | 16.1 | 0.00 | 1.70 | 0.89 | 66 | 1002.0 |
| 20260504234556 | 8 | 258 | 3.2 | 6.4 | 0.00 | 2.21 | 0.89 | 69 | 1001.4 |
| 20260504233059 | 9 | 147 | 1.6 | 4.8 | 0.00 | 2.21 | 0.89 | 62 | 1001.1 |
| 20260504231552 | 10 | 198 | 8.0 | 22.5 | 0.00 | 2.21 | 0.89 | 59 | 1000.8 |
| 20260504230110 | 10 | 241 | 11.3 | 27.4 | 0.00 | 2.84 | 0.89 | 58 | 1000.5 |
| 20260504224606 | 10 | 200 | 14.5 | 22.5 | 0.00 | 2.84 | 0.89 | 58 | 1000.4 |
| 20260504223050 | 10 | 261 | 14.5 | 30.6 | 0.00 | 2.84 | 0.89 | 59 | 1000.3 |
| 20260504221548 | 10 | 251 | 17.7 | 33.8 | 0.00 | 2.84 | 0.89 | 59 | 1000.1 |
| 20260504220055 | 10 | 256 | 17.7 | 30.6 | 0.00 | 3.30 | 0.89 | 59 | 999.9 |
| 20260504214547 | 10 | 264 | 14.5 | 37.0 | 0.00 | 3.30 | 0.89 | 60 | 999.7 |
| 20260504213045 | 11 | 241 | 19.3 | 35.4 | 0.00 | 3.30 | 0.89 | 62 | 999.7 |
| 20260504211543 | 11 | 255 | 20.9 | 51.5 | 0.00 | 3.30 | 0.89 | 63 | 999.6 |
| 20260504210053 | 11 | 283 | 16.1 | 43.5 | 0.00 | 3.35 | 0.89 | 65 | 999.2 |
| 20260504204540 | 11 | 264 | 16.1 | 33.8 | 0.00 | 3.35 | 0.89 | 67 | 999.1 |
| 20260504203034 | 10 | 244 | 14.5 | 40.2 | 0.00 | 3.35 | 0.89 | 70 | 998.9 |
| 20260504201530 | 10 | 231 | 16.1 | 35.4 | 0.00 | 3.35 | 0.89 | 72 | 998.7 |
| 20260504200033 | 10 | 235 | 12.9 | 37.0 | 0.00 | 3.63 | 0.89 | 73 | 998.4 |
| 20260504194526 | 10 | 268 | 19.3 | 43.5 | 0.00 | 3.63 | 0.89 | 74 | 998.2 |
| 20260504193024 | 10 | 242 | 22.5 | 51.5 | 0.00 | 3.63 | 0.89 | 75 | 997.9 |
| 20260504191523 | 10 | 240 | 22.5 | 51.5 | 0.00 | 3.63 | 0.89 | 74 | 997.6 |
| 20260504190021 | 10 | 229 | 19.3 | 41.8 | 0.00 | 3.63 | 0.89 | 76 | 997.0 |
| 20260504184527 | 10 | 226 | 14.5 | 57.9 | 0.00 | 3.63 | 0.89 | 77 | 997.0 |
| 20260504183023 | 9 | 241 | 20.9 | 69.2 | 0.00 | 3.63 | 0.89 | 78 | 996.8 |
| 20260504181511 | 8 | 219 | 25.7 | 49.9 | 0.00 | 3.63 | 0.89 | 81 | 996.4 |
| 20260504180008 | 7 | 271 | 27.4 | 59.5 | 0.00 | 3.63 | 0.89 | 83 | 996.4 |
| 20260504174505 | 7 | 231 | 16.1 | 49.9 | 0.00 | 3.63 | 0.89 | 84 | 996.1 |
| 20260504173002 | 7 | 283 | 32.2 | 56.3 | 0.03 | 3.63 | 0.89 | 86 | 995.5 |
| 20260504171600 | 7 | 243 | 16.1 | 43.5 | 0.03 | 3.63 | 0.89 | 87 | 995.7 |